Year,Month,Day,Hour,Minute,Value (Times are PST for windspeed in km/hr)
2020,10,16,00,00,0.00
2020,10,16,00,01,0.60
2020,10,16,00,02,0.00
2020,10,16,00,03,0.00
2020,10,16,00,04,1.30
2020,10,16,00,05,2.60
2020,10,16,00,06,2.40
2020,10,16,00,07,0.60
2020,10,16,00,08,0.90
2020,10,16,00,09,1.10
2020,10,16,00,10,1.20
2020,10,16,00,11,2.20
2020,10,16,00,12,0.40
2020,10,16,00,13,0.20
2020,10,16,00,14,0.40
2020,10,16,00,15,0.30
2020,10,16,00,16,1.50
2020,10,16,00,17,2.60
2020,10,16,00,18,2.60
2020,10,16,00,19,2.90
2020,10,16,00,20,4.90
2020,10,16,00,21,3.50
2020,10,16,00,22,2.90
2020,10,16,00,23,2.60
2020,10,16,00,24,2.20
2020,10,16,00,25,3.10
2020,10,16,00,26,4.50
2020,10,16,00,27,2.80
2020,10,16,00,28,1.10
2020,10,16,00,29,0.00
2020,10,16,00,30,1.00
2020,10,16,00,31,2.60
2020,10,16,00,32,0.60
2020,10,16,00,33,0.00
2020,10,16,00,34,1.20
2020,10,16,00,35,0.70
2020,10,16,00,36,0.20
2020,10,16,00,37,1.90
2020,10,16,00,38,2.10
2020,10,16,00,39,2.40
2020,10,16,00,40,2.50
2020,10,16,00,41,1.50
2020,10,16,00,42,0.60
2020,10,16,00,43,1.30
2020,10,16,00,44,1.40
2020,10,16,00,45,1.30
2020,10,16,00,46,2.00
2020,10,16,00,47,3.10
2020,10,16,00,48,1.40
2020,10,16,00,49,0.00
2020,10,16,00,50,0.70
2020,10,16,00,51,0.00
2020,10,16,00,52,0.50
2020,10,16,00,53,0.60
2020,10,16,00,54,0.20
2020,10,16,00,55,0.00
2020,10,16,00,56,0.00
2020,10,16,00,57,0.10
2020,10,16,00,58,0.00
2020,10,16,00,59,0.00
2020,10,16,01,00,0.30
2020,10,16,01,01,0.90
2020,10,16,01,02,0.90
2020,10,16,01,03,2.80
2020,10,16,01,04,2.00
2020,10,16,01,05,2.10
2020,10,16,01,06,1.20
2020,10,16,01,07,0.00
2020,10,16,01,08,0.00
2020,10,16,01,09,0.70
2020,10,16,01,10,1.50
2020,10,16,01,11,0.00
2020,10,16,01,12,0.00
2020,10,16,01,13,0.00
2020,10,16,01,14,0.20
2020,10,16,01,15,0.20
2020,10,16,01,16,0.30
2020,10,16,01,17,0.30
2020,10,16,01,18,0.00
2020,10,16,01,19,1.10
2020,10,16,01,20,1.30
2020,10,16,01,21,1.00
2020,10,16,01,22,0.10
2020,10,16,01,23,0.00
2020,10,16,01,24,0.00
2020,10,16,01,25,0.00
2020,10,16,01,26,0.10
2020,10,16,01,27,1.10
2020,10,16,01,28,0.80
2020,10,16,01,29,1.30
2020,10,16,01,30,1.30
2020,10,16,01,31,2.00
2020,10,16,01,32,1.50
2020,10,16,01,33,3.30
2020,10,16,01,34,2.10
2020,10,16,01,35,1.50
2020,10,16,01,36,1.10
2020,10,16,01,37,0.40
2020,10,16,01,38,1.90
2020,10,16,01,39,2.30
2020,10,16,01,40,2.80
2020,10,16,01,41,2.80
2020,10,16,01,42,1.50
2020,10,16,01,43,0.10
2020,10,16,01,44,0.20
2020,10,16,01,45,0.40
2020,10,16,01,46,0.70
2020,10,16,01,47,0.00
2020,10,16,01,48,0.00
2020,10,16,01,49,1.30
2020,10,16,01,50,1.00
2020,10,16,01,51,0.40
2020,10,16,01,52,0.40
2020,10,16,01,53,0.70
2020,10,16,01,54,0.00
2020,10,16,01,55,1.00
2020,10,16,01,56,0.90
2020,10,16,01,57,0.00
2020,10,16,01,58,0.00
2020,10,16,01,59,0.10
2020,10,16,02,00,0.00
2020,10,16,02,01,0.00
2020,10,16,02,02,1.20
2020,10,16,02,03,1.90
2020,10,16,02,04,2.20
2020,10,16,02,05,1.30
2020,10,16,02,06,0.10
2020,10,16,02,07,1.00
2020,10,16,02,08,2.80
2020,10,16,02,09,3.70
2020,10,16,02,10,3.00
2020,10,16,02,11,1.00
2020,10,16,02,12,1.50
2020,10,16,02,13,2.80
2020,10,16,02,14,2.70
2020,10,16,02,15,0.90
2020,10,16,02,16,2.20
2020,10,16,02,17,2.10
2020,10,16,02,18,1.20
2020,10,16,02,19,2.40
2020,10,16,02,20,1.20
2020,10,16,02,21,1.20
2020,10,16,02,22,1.40
2020,10,16,02,23,1.70
2020,10,16,02,24,1.80
2020,10,16,02,25,1.50
2020,10,16,02,26,0.50
2020,10,16,02,27,0.00
2020,10,16,02,28,0.00
2020,10,16,02,29,0.00
2020,10,16,02,30,0.00
2020,10,16,02,31,0.70
2020,10,16,02,32,2.20
2020,10,16,02,33,1.20
2020,10,16,02,34,1.60
2020,10,16,02,35,1.50
2020,10,16,02,36,2.80
2020,10,16,02,37,2.90
2020,10,16,02,38,3.20
2020,10,16,02,39,2.80
2020,10,16,02,40,0.80
2020,10,16,02,41,1.10
2020,10,16,02,42,0.20
2020,10,16,02,43,1.00
2020,10,16,02,44,1.60
2020,10,16,02,45,3.00
2020,10,16,02,46,1.30
2020,10,16,02,47,1.60
2020,10,16,02,48,1.30
2020,10,16,02,49,1.20
2020,10,16,02,50,2.10
2020,10,16,02,51,1.80
2020,10,16,02,52,1.50
2020,10,16,02,53,0.10
2020,10,16,02,54,0.90
2020,10,16,02,55,1.40
2020,10,16,02,56,3.00
2020,10,16,02,57,2.60
2020,10,16,02,58,3.10
2020,10,16,02,59,3.10
2020,10,16,03,00,1.80
2020,10,16,03,01,0.40
2020,10,16,03,02,0.10
2020,10,16,03,03,0.00
2020,10,16,03,04,0.20
2020,10,16,03,05,0.80
2020,10,16,03,06,0.00
2020,10,16,03,07,0.00
2020,10,16,03,08,1.20
2020,10,16,03,09,3.00
2020,10,16,03,10,1.30
2020,10,16,03,11,0.40
2020,10,16,03,12,1.80
2020,10,16,03,13,1.40
2020,10,16,03,14,2.40
2020,10,16,03,15,3.50
2020,10,16,03,16,2.70
2020,10,16,03,17,1.30
2020,10,16,03,18,0.60
2020,10,16,03,19,0.10
2020,10,16,03,20,0.80
2020,10,16,03,21,1.30
2020,10,16,03,22,1.50
2020,10,16,03,23,1.50
2020,10,16,03,24,3.40
2020,10,16,03,25,2.60
2020,10,16,03,26,1.80
2020,10,16,03,27,1.50
2020,10,16,03,28,2.40
2020,10,16,03,29,2.30
2020,10,16,03,30,0.80
2020,10,16,03,31,2.50
2020,10,16,03,32,0.40
2020,10,16,03,33,0.00
2020,10,16,03,34,0.00
2020,10,16,03,35,0.00
2020,10,16,03,36,0.00
2020,10,16,03,37,0.00
2020,10,16,03,38,0.00
2020,10,16,03,39,0.00
2020,10,16,03,40,0.00
2020,10,16,03,41,0.70
2020,10,16,03,42,2.90
2020,10,16,03,43,3.40
2020,10,16,03,44,2.40
2020,10,16,03,45,1.60
2020,10,16,03,46,1.50
2020,10,16,03,47,2.90
2020,10,16,03,48,1.10
2020,10,16,03,49,0.30
2020,10,16,03,50,0.30
2020,10,16,03,51,1.50
2020,10,16,03,52,2.30
2020,10,16,03,53,0.80
2020,10,16,03,54,1.60
2020,10,16,03,55,3.00
2020,10,16,03,56,3.20
2020,10,16,03,57,2.20
2020,10,16,03,58,2.80
2020,10,16,03,59,1.70
2020,10,16,04,00,2.80
2020,10,16,04,01,1.80
2020,10,16,04,02,2.80
2020,10,16,04,03,2.90
2020,10,16,04,04,3.20
2020,10,16,04,05,3.20
2020,10,16,04,06,3.90
2020,10,16,04,07,2.70
2020,10,16,04,08,4.00
2020,10,16,04,09,1.30
2020,10,16,04,10,2.80
2020,10,16,04,11,3.70
2020,10,16,04,12,2.30
2020,10,16,04,13,1.30
2020,10,16,04,14,1.30
2020,10,16,04,15,1.20
2020,10,16,04,16,0.70
2020,10,16,04,17,1.80
2020,10,16,04,18,1.60
2020,10,16,04,19,3.40
2020,10,16,04,20,3.20
2020,10,16,04,21,4.70
2020,10,16,04,22,4.90
2020,10,16,04,23,4.40
2020,10,16,04,24,4.60
2020,10,16,04,25,4.70
2020,10,16,04,26,1.50
2020,10,16,04,27,2.20
2020,10,16,04,28,4.90
2020,10,16,04,29,4.00
2020,10,16,04,30,3.70
2020,10,16,04,31,5.50
2020,10,16,04,32,6.80
2020,10,16,04,33,4.50
2020,10,16,04,34,3.80
2020,10,16,04,35,4.30
2020,10,16,04,36,5.60
2020,10,16,04,37,3.80
2020,10,16,04,38,1.60
2020,10,16,04,39,4.70
2020,10,16,04,40,5.10
2020,10,16,04,41,4.90
2020,10,16,04,42,1.60
2020,10,16,04,43,4.30
2020,10,16,04,44,2.80
2020,10,16,04,45,3.00
2020,10,16,04,46,3.80
2020,10,16,04,47,3.50
2020,10,16,04,48,2.00
2020,10,16,04,49,2.70
2020,10,16,04,50,2.10
2020,10,16,04,51,2.00
2020,10,16,04,52,2.20
2020,10,16,04,53,2.80
2020,10,16,04,54,2.40
2020,10,16,04,55,3.10
2020,10,16,04,56,4.30
2020,10,16,04,57,2.00
2020,10,16,04,58,2.40
2020,10,16,04,59,5.00
2020,10,16,05,00,1.90
2020,10,16,05,01,1.30
2020,10,16,05,02,1.90
2020,10,16,05,03,0.40
2020,10,16,05,04,2.80
2020,10,16,05,05,3.00
2020,10,16,05,06,0.50
2020,10,16,05,07,1.00
2020,10,16,05,08,0.10
2020,10,16,05,09,1.70
2020,10,16,05,10,3.00
2020,10,16,05,11,1.70
2020,10,16,05,12,2.20
2020,10,16,05,13,5.00
2020,10,16,05,14,2.70
2020,10,16,05,15,3.50
2020,10,16,05,16,3.70
2020,10,16,05,17,5.50
2020,10,16,05,18,4.40
2020,10,16,05,19,3.40
2020,10,16,05,20,2.50
2020,10,16,05,21,2.30
2020,10,16,05,22,2.30
2020,10,16,05,23,2.50
2020,10,16,05,24,2.10
2020,10,16,05,25,2.50
2020,10,16,05,26,3.60
2020,10,16,05,27,2.80
2020,10,16,05,28,3.10
2020,10,16,05,29,2.60
2020,10,16,05,30,3.40
2020,10,16,05,31,3.30
2020,10,16,05,32,2.50
2020,10,16,05,33,1.80
2020,10,16,05,34,3.00
2020,10,16,05,35,2.90
2020,10,16,05,36,3.20
2020,10,16,05,37,2.50
2020,10,16,05,38,2.50
2020,10,16,05,39,4.30
2020,10,16,05,40,4.30
2020,10,16,05,41,3.20
2020,10,16,05,42,4.20
2020,10,16,05,43,6.10
2020,10,16,05,44,7.30
2020,10,16,05,45,7.00
2020,10,16,05,46,4.70
2020,10,16,05,47,8.30
2020,10,16,05,48,11.80
2020,10,16,05,49,7.30
2020,10,16,05,50,5.60
2020,10,16,05,51,5.40
2020,10,16,05,52,5.40
2020,10,16,05,53,5.40
2020,10,16,05,54,3.10
2020,10,16,05,55,1.80
2020,10,16,05,56,0.50
2020,10,16,05,57,3.90
2020,10,16,05,58,4.30
2020,10,16,05,59,2.70
2020,10,16,06,00,4.80
2020,10,16,06,01,2.10
2020,10,16,06,02,3.00
2020,10,16,06,03,3.40
2020,10,16,06,04,3.70
2020,10,16,06,05,3.70
2020,10,16,06,06,3.40
2020,10,16,06,07,3.20
2020,10,16,06,08,3.60
2020,10,16,06,09,4.10
2020,10,16,06,10,5.10
2020,10,16,06,11,2.00
2020,10,16,06,12,2.80
2020,10,16,06,13,4.80
2020,10,16,06,14,5.30
2020,10,16,06,15,6.00
2020,10,16,06,16,6.10
2020,10,16,06,17,5.00
2020,10,16,06,18,3.70
2020,10,16,06,19,3.00
2020,10,16,06,20,1.70
2020,10,16,06,21,3.50
2020,10,16,06,22,5.20
2020,10,16,06,23,5.00
2020,10,16,06,24,3.00
2020,10,16,06,25,7.00
2020,10,16,06,26,6.90
2020,10,16,06,27,4.30
2020,10,16,06,28,6.30
2020,10,16,06,29,5.00
2020,10,16,06,30,4.40
2020,10,16,06,31,5.00
2020,10,16,06,32,7.30
2020,10,16,06,33,5.30
2020,10,16,06,34,3.10
2020,10,16,06,35,5.50
2020,10,16,06,36,7.60
2020,10,16,06,37,6.80
2020,10,16,06,38,6.10
2020,10,16,06,39,3.60
2020,10,16,06,40,3.20
2020,10,16,06,41,4.20
2020,10,16,06,42,6.40
2020,10,16,06,43,3.60
2020,10,16,06,44,4.70
2020,10,16,06,45,4.40
2020,10,16,06,46,5.30
2020,10,16,06,47,5.70
2020,10,16,06,48,6.60
2020,10,16,06,49,5.30
2020,10,16,06,50,3.40
2020,10,16,06,51,3.60
2020,10,16,06,52,5.80
2020,10,16,06,53,7.00
2020,10,16,06,54,4.40
2020,10,16,06,55,5.60
2020,10,16,06,56,4.30
2020,10,16,06,57,5.90
2020,10,16,06,58,7.10
2020,10,16,06,59,7.20
2020,10,16,07,00,5.40
2020,10,16,07,01,7.10
2020,10,16,07,02,8.40
2020,10,16,07,03,6.20
2020,10,16,07,04,8.50
2020,10,16,07,05,10.80
2020,10,16,07,06,6.60
2020,10,16,07,07,6.20
2020,10,16,07,08,5.30
2020,10,16,07,09,7.00
2020,10,16,07,10,4.80
2020,10,16,07,11,4.30
2020,10,16,07,12,4.20
2020,10,16,07,13,5.60
2020,10,16,07,14,3.70
2020,10,16,07,15,6.10
2020,10,16,07,16,5.70
2020,10,16,07,17,5.30
2020,10,16,07,18,3.20
2020,10,16,07,19,3.40
2020,10,16,07,20,4.10
2020,10,16,07,21,4.40
2020,10,16,07,22,5.00
2020,10,16,07,23,6.20
2020,10,16,07,24,4.30
2020,10,16,07,25,5.60
2020,10,16,07,26,6.00
2020,10,16,07,27,5.40
2020,10,16,07,28,6.40
2020,10,16,07,29,4.70
2020,10,16,07,30,5.90
2020,10,16,07,31,7.50
2020,10,16,07,32,5.60
2020,10,16,07,33,5.30
2020,10,16,07,34,5.60
2020,10,16,07,35,9.30
2020,10,16,07,36,6.20
2020,10,16,07,37,4.00
2020,10,16,07,38,4.50
2020,10,16,07,39,8.10
2020,10,16,07,40,5.10
2020,10,16,07,41,4.40
2020,10,16,07,42,4.20
2020,10,16,07,43,7.80
2020,10,16,07,44,6.30
2020,10,16,07,45,6.00
2020,10,16,07,46,5.30
2020,10,16,07,47,5.40
2020,10,16,07,48,4.70
2020,10,16,07,49,5.90
2020,10,16,07,50,7.40
2020,10,16,07,51,5.70
2020,10,16,07,52,4.70
2020,10,16,07,53,5.80
2020,10,16,07,54,9.20
2020,10,16,07,55,13.20
2020,10,16,07,56,7.50
2020,10,16,07,57,5.70
2020,10,16,07,58,9.80
2020,10,16,07,59,10.10
2020,10,16,08,00,7.20
2020,10,16,08,01,8.40
2020,10,16,08,02,12.50
2020,10,16,08,03,10.50
2020,10,16,08,04,10.00
2020,10,16,08,05,11.90
2020,10,16,08,06,10.00
2020,10,16,08,07,9.80
2020,10,16,08,08,7.40
2020,10,16,08,09,8.50
2020,10,16,08,10,10.70
2020,10,16,08,11,12.30
2020,10,16,08,12,9.80
2020,10,16,08,13,7.40
2020,10,16,08,14,10.40
2020,10,16,08,15,8.30
2020,10,16,08,16,7.50
2020,10,16,08,17,9.10
2020,10,16,08,18,10.40
2020,10,16,08,19,5.50
2020,10,16,08,20,7.10
2020,10,16,08,21,7.90
2020,10,16,08,22,9.00
2020,10,16,08,23,7.90
2020,10,16,08,24,5.70
2020,10,16,08,25,9.90
2020,10,16,08,26,8.20
2020,10,16,08,27,8.10
2020,10,16,08,28,8.00
2020,10,16,08,29,5.60
2020,10,16,08,30,7.30
2020,10,16,08,31,7.80
2020,10,16,08,32,6.70
2020,10,16,08,33,6.70
2020,10,16,08,34,6.50
2020,10,16,08,35,9.00
2020,10,16,08,36,6.50
2020,10,16,08,37,9.20
2020,10,16,08,38,6.10
2020,10,16,08,39,5.70
2020,10,16,08,40,8.90
2020,10,16,08,41,9.30
2020,10,16,08,42,4.80
2020,10,16,08,43,5.50
2020,10,16,08,44,5.50
2020,10,16,08,45,6.10
2020,10,16,08,46,8.50
2020,10,16,08,47,8.20
2020,10,16,08,48,6.60
2020,10,16,08,49,7.20
2020,10,16,08,50,9.70
2020,10,16,08,51,9.20
2020,10,16,08,52,8.40
2020,10,16,08,53,6.80
2020,10,16,08,54,7.40
2020,10,16,08,55,9.50
2020,10,16,08,56,7.80
2020,10,16,08,57,9.70
2020,10,16,08,58,7.40
2020,10,16,08,59,11.20
2020,10,16,09,00,11.40
2020,10,16,09,01,12.70
2020,10,16,09,02,9.50
2020,10,16,09,03,11.80
2020,10,16,09,04,11.50
2020,10,16,09,05,8.80
2020,10,16,09,06,11.90
2020,10,16,09,07,10.20
2020,10,16,09,08,10.10
2020,10,16,09,09,7.60
2020,10,16,09,10,13.10
2020,10,16,09,11,10.70
2020,10,16,09,12,5.60
2020,10,16,09,13,6.40
2020,10,16,09,14,4.40
2020,10,16,09,15,5.10
2020,10,16,09,16,8.10
2020,10,16,09,17,5.10
2020,10,16,09,18,4.90
2020,10,16,09,19,6.70
2020,10,16,09,20,3.70
2020,10,16,09,21,5.00
2020,10,16,09,22,4.80
2020,10,16,09,23,3.50
2020,10,16,09,24,4.40
2020,10,16,09,25,6.30
2020,10,16,09,26,4.90
2020,10,16,09,27,4.80
2020,10,16,09,28,4.10
2020,10,16,09,29,5.80
2020,10,16,09,30,3.90
2020,10,16,09,31,10.40
2020,10,16,09,32,9.60
2020,10,16,09,33,11.70
2020,10,16,09,34,12.70
2020,10,16,09,35,9.20
2020,10,16,09,36,8.60
2020,10,16,09,37,7.70
2020,10,16,09,38,12.30
2020,10,16,09,39,10.40
2020,10,16,09,40,18.40
2020,10,16,09,41,15.60
2020,10,16,09,42,10.50
2020,10,16,09,43,9.50
2020,10,16,09,44,12.50
2020,10,16,09,45,11.60
2020,10,16,09,46,14.30
2020,10,16,09,47,19.80
2020,10,16,09,48,12.10
2020,10,16,09,49,9.80
2020,10,16,09,50,15.80
2020,10,16,09,51,19.60
2020,10,16,09,52,19.70
2020,10,16,09,53,16.00
2020,10,16,09,54,20.80
2020,10,16,09,55,21.10
2020,10,16,09,56,31.20
2020,10,16,09,57,18.70
2020,10,16,09,58,25.50
2020,10,16,09,59,20.30
2020,10,16,10,00,22.70
2020,10,16,10,01,27.10
2020,10,16,10,02,32.10
2020,10,16,10,03,32.70
2020,10,16,10,04,23.00
2020,10,16,10,05,23.70
2020,10,16,10,06,29.80
2020,10,16,10,07,26.50
2020,10,16,10,08,14.50
2020,10,16,10,09,15.10
2020,10,16,10,10,21.10
2020,10,16,10,11,20.90
2020,10,16,10,12,19.40
2020,10,16,10,13,19.70
2020,10,16,10,14,11.20
2020,10,16,10,15,19.70
2020,10,16,10,16,24.00
2020,10,16,10,17,20.20
2020,10,16,10,18,21.10
2020,10,16,10,19,20.10
2020,10,16,10,20,15.00
2020,10,16,10,21,19.60
2020,10,16,10,22,11.80
2020,10,16,10,23,16.70
2020,10,16,10,24,26.80
2020,10,16,10,25,22.90
2020,10,16,10,26,27.30
2020,10,16,10,27,21.80
2020,10,16,10,28,15.30
2020,10,16,10,29,22.00
2020,10,16,10,30,24.00
2020,10,16,10,31,24.20
2020,10,16,10,32,17.20
2020,10,16,10,33,32.50
2020,10,16,10,34,18.70
2020,10,16,10,35,11.80
2020,10,16,10,36,21.70
2020,10,16,10,37,19.40
2020,10,16,10,38,20.60
2020,10,16,10,39,25.60
2020,10,16,10,40,33.90
2020,10,16,10,41,51.50
2020,10,16,10,42,51.50
2020,10,16,10,43,51.50
2020,10,16,10,44,51.50
2020,10,16,10,45,51.50
2020,10,16,10,46,45.40
2020,10,16,10,47,26.60
2020,10,16,10,48,17.70
2020,10,16,10,49,17.70
2020,10,16,10,50,17.70
2020,10,16,10,51,17.70
2020,10,16,10,52,17.70
2020,10,16,10,53,17.70
2020,10,16,10,54,17.70
2020,10,16,10,55,17.70
2020,10,16,10,56,17.70
2020,10,16,10,57,17.70
2020,10,16,10,58,17.70
2020,10,16,16,19,21.40
2020,10,16,16,20,20.60
2020,10,16,16,21,20.40
2020,10,16,16,22,21.20
2020,10,16,16,23,19.10
2020,10,16,16,24,13.20
2020,10,16,16,25,19.70
2020,10,16,16,26,19.00
2020,10,16,16,27,15.30
2020,10,16,16,28,16.20
2020,10,16,16,29,19.90
2020,10,16,16,30,21.10
2020,10,16,16,31,17.30
2020,10,16,16,32,19.70
2020,10,16,16,33,15.90
2020,10,16,16,34,19.90
2020,10,16,16,35,18.90
2020,10,16,16,36,17.10
2020,10,16,16,37,12.70
2020,10,16,16,38,23.10
2020,10,16,16,39,26.30
2020,10,16,16,40,20.60
2020,10,16,16,41,12.30
2020,10,16,16,42,24.10
2020,10,16,16,43,16.10
2020,10,16,16,44,20.90
2020,10,16,16,45,12.20
2020,10,16,16,46,26.70
2020,10,16,16,47,22.20
2020,10,16,16,48,20.80
2020,10,16,16,49,19.90
2020,10,16,16,50,20.70
2020,10,16,16,51,16.90
2020,10,16,16,52,16.20
2020,10,16,16,53,19.10
2020,10,16,16,54,18.40
2020,10,16,16,55,19.40
2020,10,16,16,56,24.90
2020,10,16,16,57,23.80
2020,10,16,16,58,23.40
2020,10,16,16,59,25.20
2020,10,16,17,00,22.30
2020,10,16,17,01,19.80
2020,10,16,17,02,14.60
2020,10,16,17,03,23.00
2020,10,16,17,04,19.90
2020,10,16,17,05,16.20
2020,10,16,17,06,14.80
2020,10,16,17,07,13.70
2020,10,16,17,08,21.40
2020,10,16,17,09,19.50
2020,10,16,17,10,14.60
2020,10,16,17,11,15.10
2020,10,16,17,12,17.50
2020,10,16,17,13,22.20
2020,10,16,17,14,12.70
2020,10,16,17,15,10.90
2020,10,16,17,16,23.00
2020,10,16,17,17,21.10
2020,10,16,17,18,19.70
2020,10,16,17,19,19.50
2020,10,16,17,20,21.10
2020,10,16,17,21,20.30
2020,10,16,17,22,19.20
2020,10,16,17,23,16.80
2020,10,16,17,24,9.40
2020,10,16,17,25,16.00
2020,10,16,17,26,18.00
2020,10,16,17,27,19.00
2020,10,16,17,28,17.30
2020,10,16,17,29,16.70
2020,10,16,17,30,19.50
2020,10,16,17,31,17.60
2020,10,16,17,32,16.00
2020,10,16,17,33,15.90
2020,10,16,17,34,14.90
2020,10,16,17,35,15.40
2020,10,16,17,36,19.90
2020,10,16,17,37,13.70
2020,10,16,17,38,19.90
2020,10,16,17,39,20.50
2020,10,16,17,40,19.90
2020,10,16,17,41,17.80
2020,10,16,17,42,14.50
2020,10,16,17,43,18.10
2020,10,16,17,44,17.00
2020,10,16,17,45,17.70
2020,10,16,17,46,15.20
2020,10,16,17,47,14.20
2020,10,16,17,48,11.90
2020,10,16,17,49,7.00
2020,10,16,17,50,13.00
2020,10,16,17,51,12.00
2020,10,16,17,52,11.30
2020,10,16,17,53,13.10
2020,10,16,17,54,16.70
2020,10,16,17,55,13.60
2020,10,16,17,56,13.40
2020,10,16,17,57,17.20
2020,10,16,17,58,18.10
2020,10,16,17,59,9.80
2020,10,16,18,00,12.40
2020,10,16,18,01,10.70
2020,10,16,18,02,5.10
2020,10,16,18,03,9.60
2020,10,16,18,04,7.20
2020,10,16,18,05,11.20
2020,10,16,18,06,14.30
2020,10,16,18,07,8.70
2020,10,16,18,08,9.70
2020,10,16,18,09,5.80
2020,10,16,18,10,8.10
2020,10,16,18,11,9.50
2020,10,16,18,12,13.30
2020,10,16,18,13,10.70
2020,10,16,18,14,17.40
2020,10,16,18,15,20.20
2020,10,16,18,16,11.30
2020,10,16,18,17,12.10
2020,10,16,18,18,12.40
2020,10,16,18,19,10.50
2020,10,16,18,20,13.90
2020,10,16,18,21,11.00
2020,10,16,18,22,17.00
2020,10,16,18,23,13.90
2020,10,16,18,24,16.30
2020,10,16,18,25,12.20
2020,10,16,18,26,12.50
2020,10,16,18,27,8.80
2020,10,16,18,28,12.00
2020,10,16,18,29,17.80
2020,10,16,18,30,16.80
2020,10,16,18,31,14.90
2020,10,16,18,32,18.00
2020,10,16,18,33,12.50
2020,10,16,18,34,13.40
2020,10,16,18,35,13.50
2020,10,16,18,36,12.00
2020,10,16,18,37,11.20
2020,10,16,18,38,13.70
2020,10,16,18,39,8.30
2020,10,16,18,40,16.30
2020,10,16,18,41,11.80
2020,10,16,18,42,12.90
2020,10,16,18,43,11.20
2020,10,16,18,44,10.20
2020,10,16,18,45,7.50
2020,10,16,18,46,10.60
2020,10,16,18,47,11.00
2020,10,16,18,48,16.90
2020,10,16,18,49,14.30
2020,10,16,18,50,14.10
2020,10,16,18,51,7.40
2020,10,16,18,52,9.60
2020,10,16,18,53,15.00
2020,10,16,18,54,14.80
2020,10,16,18,55,12.40
2020,10,16,18,56,13.10
2020,10,16,18,57,7.30
2020,10,16,18,58,9.00
2020,10,16,18,59,7.20
2020,10,16,19,00,15.60
2020,10,16,19,01,15.40
2020,10,16,19,02,18.50
2020,10,16,19,03,15.80
2020,10,16,19,04,9.10
2020,10,16,19,05,9.50
2020,10,16,19,06,9.70
2020,10,16,19,07,12.70
2020,10,16,19,08,16.40
2020,10,16,19,09,10.00
2020,10,16,19,10,14.10
2020,10,16,19,11,14.40
2020,10,16,19,12,13.10
2020,10,16,19,13,15.60
2020,10,16,19,14,8.50
2020,10,16,19,15,12.80
2020,10,16,19,16,8.70
2020,10,16,19,17,5.70
2020,10,16,19,18,10.90
2020,10,16,19,19,14.90
2020,10,16,19,20,10.60
2020,10,16,19,21,10.60
2020,10,16,19,22,11.30
2020,10,16,19,23,11.20
2020,10,16,19,24,14.10
2020,10,16,19,25,8.60
2020,10,16,19,26,11.70
2020,10,16,19,27,11.20
2020,10,16,19,28,6.70
2020,10,16,19,29,7.30
2020,10,16,19,30,8.60
2020,10,16,19,31,10.20
2020,10,16,19,32,6.40
2020,10,16,19,33,10.50
2020,10,16,19,34,10.90
2020,10,16,19,35,9.50
2020,10,16,19,36,6.80
2020,10,16,19,37,9.10
2020,10,16,19,38,9.90
2020,10,16,19,39,7.30
2020,10,16,19,40,9.00
2020,10,16,19,41,13.30
2020,10,16,19,42,9.40
2020,10,16,19,43,15.50
2020,10,16,19,44,11.90
2020,10,16,19,45,10.20
2020,10,16,19,46,11.50
2020,10,16,19,47,11.10
2020,10,16,19,48,8.60
2020,10,16,19,49,14.10
2020,10,16,19,50,6.50
2020,10,16,19,51,7.10
2020,10,16,19,52,12.00
2020,10,16,19,53,5.70
2020,10,16,19,54,4.00
2020,10,16,19,55,7.20
2020,10,16,19,56,12.20
2020,10,16,19,57,10.70
2020,10,16,19,58,7.10
2020,10,16,19,59,12.10
2020,10,16,20,00,15.20
2020,10,16,20,01,12.30
2020,10,16,20,02,9.00
2020,10,16,20,03,6.70
2020,10,16,20,04,4.70
2020,10,16,20,05,9.90
2020,10,16,20,06,13.40
2020,10,16,20,07,12.40
2020,10,16,20,08,10.10
2020,10,16,20,09,13.50
2020,10,16,20,10,12.70
2020,10,16,20,11,14.30
2020,10,16,20,12,13.10
2020,10,16,20,13,7.80
2020,10,16,20,14,16.00
2020,10,16,20,15,9.90
2020,10,16,20,16,10.80
2020,10,16,20,17,12.20
2020,10,16,20,18,13.10
2020,10,16,20,19,7.20
2020,10,16,20,20,11.70
2020,10,16,20,21,9.90
2020,10,16,20,22,12.90
2020,10,16,20,23,6.90
2020,10,16,20,24,10.50
2020,10,16,20,25,15.00
2020,10,16,20,26,16.90
2020,10,16,20,27,11.20
2020,10,16,20,28,8.30
2020,10,16,20,29,8.90
2020,10,16,20,30,13.40
2020,10,16,20,31,14.70
2020,10,16,20,32,16.70
2020,10,16,20,33,6.70
2020,10,16,20,34,4.50
2020,10,16,20,35,9.90
2020,10,16,20,36,7.40
2020,10,16,20,37,16.20
2020,10,16,20,38,15.90
2020,10,16,20,39,9.20
2020,10,16,20,40,9.70
2020,10,16,20,41,5.70
2020,10,16,20,42,7.10
2020,10,16,20,43,7.30
2020,10,16,20,44,5.20
2020,10,16,20,45,8.00
2020,10,16,20,46,8.60
2020,10,16,20,47,7.30
2020,10,16,20,48,8.40
2020,10,16,20,49,11.30
2020,10,16,20,50,13.30
2020,10,16,20,51,7.30
2020,10,16,20,52,9.30
2020,10,16,20,53,7.30
2020,10,16,20,54,13.20
2020,10,16,20,55,12.90
2020,10,16,20,56,6.10
2020,10,16,20,57,15.20
2020,10,16,20,58,15.30
2020,10,16,20,59,10.20
2020,10,16,21,00,9.00
2020,10,16,21,01,9.80
2020,10,16,21,02,10.20
2020,10,16,21,03,12.30
2020,10,16,21,04,14.30
2020,10,16,21,05,13.50
2020,10,16,21,06,7.40
2020,10,16,21,07,12.50
2020,10,16,21,08,17.50
2020,10,16,21,09,12.00
2020,10,16,21,10,18.30
2020,10,16,21,11,6.30
2020,10,16,21,12,9.00
2020,10,16,21,13,13.80
2020,10,16,21,14,9.90
2020,10,16,21,15,13.40
2020,10,16,21,16,8.10
2020,10,16,21,17,13.20
2020,10,16,21,18,12.30
2020,10,16,21,19,14.90
2020,10,16,21,20,15.30
2020,10,16,21,21,5.50
2020,10,16,21,22,6.90
2020,10,16,21,23,8.70
2020,10,16,21,24,11.50
2020,10,16,21,25,13.30
2020,10,16,21,26,9.10
2020,10,16,21,27,16.90
2020,10,16,21,28,14.30
2020,10,16,21,29,15.90
2020,10,16,21,30,11.40
2020,10,16,21,31,16.80
2020,10,16,21,32,15.00
2020,10,16,21,33,7.60
2020,10,16,21,34,10.20
2020,10,16,21,35,11.20
2020,10,16,21,36,11.00
2020,10,16,21,37,15.90
2020,10,16,21,38,9.10
2020,10,16,21,39,11.60
2020,10,16,21,40,8.70
2020,10,16,21,41,12.30
2020,10,16,21,42,6.70
2020,10,16,21,43,7.70
2020,10,16,21,44,5.60
2020,10,16,21,45,8.40
2020,10,16,21,46,14.80
2020,10,16,21,47,9.90
2020,10,16,21,48,8.70
2020,10,16,21,49,12.20
2020,10,16,21,50,13.80
2020,10,16,21,51,8.30
2020,10,16,21,52,8.30
2020,10,16,21,53,6.30
2020,10,16,21,54,8.60
2020,10,16,21,55,14.50
2020,10,16,21,56,9.10
2020,10,16,21,57,9.70
2020,10,16,21,58,5.60
2020,10,16,21,59,5.50
2020,10,16,22,00,10.50
2020,10,16,22,01,11.60
2020,10,16,22,02,8.70
2020,10,16,22,03,5.30
2020,10,16,22,04,6.80
2020,10,16,22,05,6.50
2020,10,16,22,06,7.30
2020,10,16,22,07,11.30
2020,10,16,22,08,11.70
2020,10,16,22,09,4.80
2020,10,16,22,10,5.60
2020,10,16,22,11,8.70
2020,10,16,22,12,2.50
2020,10,16,22,13,3.70
2020,10,16,22,14,1.20
2020,10,16,22,15,3.80
2020,10,16,22,16,10.30
2020,10,16,22,17,10.90
2020,10,16,22,18,7.90
2020,10,16,22,19,9.60
2020,10,16,22,20,6.70
2020,10,16,22,21,3.60
2020,10,16,22,22,9.30
2020,10,16,22,23,3.50
2020,10,16,22,24,7.30
2020,10,16,22,25,6.90
2020,10,16,22,26,10.70
2020,10,16,22,27,8.90
2020,10,16,22,28,9.50
2020,10,16,22,29,5.60
2020,10,16,22,30,5.30
2020,10,16,22,31,6.90
2020,10,16,22,32,13.20
2020,10,16,22,33,9.40
2020,10,16,22,34,5.60
2020,10,16,22,35,9.40
2020,10,16,22,36,9.40
2020,10,16,22,37,4.40
2020,10,16,22,38,8.10
2020,10,16,22,39,10.20
2020,10,16,22,40,7.30
2020,10,16,22,41,8.20
2020,10,16,22,42,7.60
2020,10,16,22,43,9.40
2020,10,16,22,44,10.40
2020,10,16,22,45,12.40
2020,10,16,22,46,14.90
2020,10,16,22,47,6.10
2020,10,16,22,48,6.40
2020,10,16,22,49,11.30
2020,10,16,22,50,7.30
2020,10,16,22,51,6.90
2020,10,16,22,52,5.30
2020,10,16,22,53,6.70
2020,10,16,22,54,8.70
2020,10,16,22,55,13.60
2020,10,16,22,56,9.50
2020,10,16,22,57,10.50
2020,10,16,22,58,5.70
2020,10,16,22,59,8.20
2020,10,16,23,00,10.00
2020,10,16,23,01,8.80
2020,10,16,23,02,7.50
2020,10,16,23,03,7.30
2020,10,16,23,04,6.90
2020,10,16,23,05,19.20
2020,10,16,23,06,12.40
2020,10,16,23,07,7.00
2020,10,16,23,08,9.40
2020,10,16,23,09,7.40
2020,10,16,23,10,5.40